Volver al catálogo

SL-8 DEB

ActivoLEO
NORAD 21402·DEBRIS·🇷🇺 Russia

Lanzado Feb 12, 1991 desde Plesetsk Cosmodrome

Loading…

Próximos Pases (próximas 24 horas)

TLE

ActualizadoSource: Space-Track

Época: Sep 14, 2026, 14:40 UTC

1 21402U 91009BR  26257.61127426  .00000009  00000-0  22850-3 0  9998
2 21402  74.0251 122.7187 0135793 249.7870 136.3466 12.18417622579636

Sigue SL-8 DEB en tiempo real con AllMySat

Download on the App Store